Location: Hradec Kralove
(50.2170°N, 15.8330°E)
Time: 02:25:36
(UTC+02:00)

AO-73 - Pass Details

Date: 16 September 2024
Orbit: 549 x 616 km, 97.7° (Epoch: 04 October)

Event Time Altitude Azimuth Distance (km) Brightness Sun altitude
Rises 04:33:07 0° 10° (N) 2,827 ? -19.2°
Reaches altitude 10° 04:35:19 10° 7° (N) 1,910 ? -18.9°
Maximum altitude 04:39:23 60° 288° (WNW) 659 ? -18.4°
Enters shadow 04:40:32 42° 230° (SW) 826 ? -18.2°
